{"data":{"norad_id":68997,"intl_designator":"2026-100T","name":"YAM-15","alt_names":[],"object_type":"PAYLOAD","status":"ACTIVE","operator":null,"country":"US","launch_date":"2026-05-03","launch_site_code":"AFWTR","launch_vehicle":null,"mission":null,"orbit_class":"UNKNOWN","rcs_meters":null,"size_class":null,"mass_kg":null,"dimensions":null,"purposes":[],"wikipedia_slug":null,"has_3d_model":false,"image_url":null,"decayed_at":null,"tle_current":{"epoch":"2026-05-25T03:14:27.780864Z","epoch_age_seconds":57270,"freshness":"FRESH","line1":"1 68997U 26100T   26145.13504376  .00001481  00000+0  15248-3 0  9991","line2":"2 68997  97.7388  43.0164 0001959 180.4880 179.6337 14.91769350  3266","mean_motion":14.9176935,"eccentricity":0.0001959,"inclination_deg":97.7388,"raan_deg":43.0164,"arg_perigee_deg":180.488,"mean_anomaly_deg":179.6337,"bstar":0.00015248,"rev_number":326,"period_min":96.529667940959,"perigee_km":591.05294656793,"apogee_km":593.78401020436,"semimajor_km":6970.5554783861,"source":"CELESTRAK","updated_at":"2026-05-25T13:38:08.810810Z"}}}